Погода в Приморске

Россия / Калининградская область     54°43′44″N   20°00′15″E
темп.,
°C
ветер,
м/с
пор.,
м/с
влажн.,
%
обл.,
%
осадки,
мм/ч
давл.,
гПа
погр.,
м
17 мая, пн
пн1723:00+11ю4794100 0.6 1002152
02:00+10ююз4896100 0.8 1003157
05:00+9ююз46953 0.0 1003117
08:00+11ююз45870 0.0 1004172
11:00+14ююз23710 0.0 1005413
14:00+16ююв23606 0.0 10051091
17:00+17в1357100 0.0 10041087
20:00+14в2279100 0.1 100426
18 мая, вт
вт1823:00+11в3382100 0.0 100431
02:00+11в3589100 0.1 100481
05:00+11всв1185100 0.0 100411
08:00+12с0182100 0.1 100590
11:00+15сз3274100 0.0 1005437
14:00+13сз658122 0.2 1005398
17:00+11сз7108545 0.0 1006336
20:00+10ссз6109098 0.0 1006255
19 мая, ср
ср1923:00+9сз61192100 0.0 1007316
02:00+9сз61193100 0.1 1007368
05:00+9зсз5990100 0.2 1007304
08:00+10зсз4781100 0.2 1008364
11:00+11з5684100 0.0 1009376
14:00+11зсз798372 0.0 1011396
17:00+10зсз69766 0.0 1011414
20:00+9зсз510835 0.0 1012295
20 мая, чт
чт2023:00+8з49873 0.0 1013208
02:00+8з5109022 0.0 1013263
05:00+8зсз510925 0.0 1013240
08:00+11зсз69794 0.0 1015386
11:00+12зсз67751 0.0 1015593
14:00+12сз68732 0.0 1016623
17:00+10сз811795 0.0 1016584
20:00+8зсз711834 0.0 1016538
21 мая, пт
пт2123:00+8з611850 0.0 1016437
02:00+8з611885 0.0 1016479
05:00+8з711895 0.0 1015528
08:00+9з79826 0.1 1016783
11:00+10з79673 0.0 10161100
14:00+10зсз68645 0.0 1016822
17:00+10зсз46635 0.0 1015612
20:00+7юз22750 0.0 101470